QPF
0.00 0.00 0.00 0.00 0.00 0.00 0.00 0.00 0.00 0.00 0.00 0.00 0.00 0.00 0.00 0.00 0.00 0.00 0.00 0.00 0.00 0.00 0.00 0.00 0.00 0.00 0.00 0.00 0.00 0.00 0.00 0.00 0.00 0.00 0.00 0.00 0.00 0.00 0.00 0.00 0.00 0.00
0.00 0.00 0.00 0.00 0.00 0.00 0.00 0.00 0.00 0.00 0.00 0.00 0.00 0.00 0.00 0.00 0.00 0.00 0.00 0.00 0.00 0.00 0.00 0.00 0.00 0.00 0.00 0.00 0.00 0.00 0.00 0.00 0.00 0.00 0.00 0.00 0.00 0.00 0.00 0.00 0.00 0.00
0.00 0.00 0.00 0.00 0.00 0.00 0.00 0.00 0.00 0.00 0.00 0.00 0.00 0.00 0.00 0.00 0.00 0.00 0.00 0.00 0.00 0.00 0.00 0.00 0.00 0.00 0.00 0.00 0.00 0.00 0.00 0.00 0.00 0.00 0.00 0.00 0.00 0.00 0.00 0.00 0.00 0.00
0.00 0.00 0.00 0.00 0.00 0.00 0.00 0.00 0.00 0.00 0.00 0.00 0.00 0.00 0.00 0.00 0.00 0.00 0.00 0.00 0.00 0.00 0.00 0.00 0.00 0.00 0.00 0.00 0.00 0.00 0.00 0.00 0.00 0.00 0.00 0.00 0.00 0.00 0.00 0.00 0.00 0.00
0.00 0.00 0.00 0.00 0.00 0.00 0.00 0.00 0.00 0.00 0.00 0.00 0.00 0.00 0.00 0.00 0.00 0.00 0.00 0.00 0.00 0.00 0.00 0.00 0.00 0.00 0.00 0.00 0.00 0.00 0.00 0.00 0.00 0.00 0.00 0.00 0.00 0.00 0.00 0.00 0.00 0.00
0.00 0.00 0.00 0.00 0.00 0.00 0.00 0.00 0.00 0.00 0.00 0.00 0.00 0.00 0.00 0.00 0.00 0.00 0.00 0.00 0.00 0.00 0.00 0.00 0.00 0.00 0.00 0.00 0.00 0.00 0.00 0.00 0.00 0.00 0.00 0.00 0.00 0.00 0.00 0.00 0.00 0.00
0.00 0.00 0.00 0.00 0.00 0.00 0.00 0.00 0.00 0.00 0.00 0.00 0.00 0.00 0.00 0.00 0.00 0.00 0.00 0.00 0.00 0.00 0.00 0.01 0.00 0.00 0.00 0.00 0.00 0.00 0.00 0.00 0.00 0.00 0.00 0.00 0.00 0.00 0.00 0.00 0.00 0.00
0.00 0.00 0.00 0.00 0.00 0.00 0.00 0.00 0.00 0.00 0.00 0.00 0.00 0.00 0.00 0.00 0.00 0.00 0.00 0.00 0.00 0.00 0.00 0.00 0.00 0.00 0.00 0.00 0.00 0.00 0.00 0.00 0.00 0.00 0.00 0.00 0.00 0.00 0.00 0.00 0.00 0.00
0.00 0.00 0.00 0.00 0.00 0.00 0.00 0.00 0.00 0.00 0.00 0.00 0.00 0.00 0.00 0.00 0.00 0.00 0.00 0.00 0.00 0.00 0.00 0.00 0.00 0.00 0.00 0.00 0.00 0.00 0.00 0.00 0.00 0.00 0.00 0.00 0.00 0.00 0.00 0.00 0.00 0.00
0.00 0.00 0.00 0.00 0.00 0.00 0.00 0.00 0.00 0.00 0.00 0.00 0.00 0.00 0.00 0.00 0.00 0.00 0.00 0.00 0.00 0.00 0.00 0.00 0.00 0.00 0.00 0.00 0.00 0.00 0.00 0.00 0.00 0.00 0.00 0.00 0.00 0.00 0.00 0.00 0.00 0.00
0.00 0.00 0.00 0.00 0.00 0.00 0.00 0.00 0.00 0.00 0.00 0.00 0.00 0.00 0.00 0.00 0.00 0.00 0.00 0.00 0.00 0.00 0.00 0.00 0.00 0.00 0.00 0.00 0.00 0.00 0.00 0.00 0.00 0.00 0.00 0.00 0.00 0.00 0.00 0.00 0.00 0.01
0.00 0.00 0.00 0.00 0.00 0.00 0.00 0.00 0.00 0.00 0.00 0.00 0.00 0.00 0.00 0.00 0.00 0.00 0.00 0.00 0.00 0.00 0.00 0.00 0.00 0.00 0.00 0.00 0.00 0.00 0.00 0.00 0.00 0.00 0.00 0.00 0.00 0.00 0.00 0.00 0.00 0.00
0.00 0.00 0.00 0.00 0.00 0.00 0.00 0.00 0.00 0.00 0.00 0.00 0.00 0.00 0.00 0.00 0.00 0.00 0.00 0.00 0.00 0.00 0.00 0.00 0.00 0.00 0.00 0.00 0.00 0.00 0.00 0.00 0.00 0.00 0.00 0.00 0.00 0.00 0.00 0.00 0.00 0.00
0.00 0.00 0.00 0.00 0.00 0.00 0.00 0.00 0.00 0.00 0.00 0.00 0.00 0.00 0.00 0.00 0.00 0.00 0.00 0.00 0.00 0.00 0.00 0.00 0.00 0.00 0.00 0.00 0.00 0.00 0.00 0.00 0.00 0.00 0.00 0.00 0.00 0.00 0.00 0.00 0.00 0.00
0.00 0.00 0.00 0.00 0.00 0.00 0.00 0.00 0.00 0.00 0.01 0.00 0.00 0.00 0.00 0.00 0.00 0.00 0.00 0.00 0.00 0.00 0.00 0.00 0.00 0.00 0.00 0.00 0.00 0.00 0.00 0.00 0.00 0.00 0.00 0.00 0.01 0.00 0.00 0.00 0.00 0.00
0.00 0.00 0.00 0.00 0.00 0.00 0.00 0.00 0.00 0.00 0.00 0.00 0.00 0.00 0.00 0.00 0.00 0.00 0.00 0.00 0.00 0.00 0.00 0.00 0.00 0.00 0.00 0.00 0.00 0.00 0.00 0.00 0.00 0.00 0.00 0.00 0.00 0.00 0.00 0.00 0.00 0.00
0.00 0.00 0.00 0.00 0.00 0.00 0.00 0.00 0.00 0.00 0.00 0.00 0.00 0.00 0.00 0.00 0.00 0.00 0.00 0.00 0.00 0.00 0.00 0.00 0.00 0.00 0.00 0.01 0.00 0.00 0.00 0.00 0.00 0.00 0.01 0.01 0.00 0.00 0.01 0.00 0.00 0.00
0.00 0.00 0.00 0.00 0.00 0.00 0.00 0.00 0.00 0.00 0.00 0.00 0.00 0.00 0.00 0.00 0.00 0.01 0.00 0.00 0.00 0.00 0.00 0.00 0.00 0.00 0.00 0.00 0.00 0.00 0.00 0.00 0.00 0.04 0.03 0.05 0.00 0.00 0.00 0.01 0.00 0.00
0.00 0.00 0.00 0.00 0.00 0.00 0.00 0.00 0.00 0.00 0.00 0.00 0.00 0.00 0.00 0.00 0.00 0.00 0.00 0.02 0.01 0.02 0.00 0.00 0.00 0.00 0.00 0.00 0.00 0.00 0.00 0.02 0.00 0.03 0.07 0.03 0.01 0.00 0.01 0.00 0.00 0.00
0.00 0.00 0.00 0.00 0.00 0.00 0.00 0.01 0.00 0.00 0.00 0.00 0.00 0.00 0.00 0.00 0.00 0.00 0.00 0.00 0.02 0.03 0.02 0.01 0.00 0.00 0.00 0.00 0.00 0.00 0.00 0.00 0.00 0.00 0.01 0.00 0.00 0.00 0.00 0.00 0.01 0.01
0.00 0.00 0.00 0.00 0.00 0.00 0.00 0.00 0.01 0.00 0.00 0.00 0.00 0.00 0.00 0.00 0.00 0.00 0.00 0.00 0.00 0.00 0.00 0.01 0.00 0.00 0.01 0.00 0.00 0.00 0.00 0.00 0.03 0.00 0.01 0.01 0.00 0.00 0.00 0.03 0.09 0.06
0.00 0.00 0.00 0.00 0.00 0.00 0.00 0.00 0.01 0.01 0.01 0.00 0.00 0.00 0.00 0.00 0.00 0.00 0.00 0.00 0.01 0.02 0.01 0.01 0.00 0.00 0.01 0.00 0.00 0.00 0.00 0.00 0.00 0.00 0.00 0.00 0.00 0.00 0.01 0.04 0.06 0.15
0.00 0.00 0.00 0.00 0.00 0.01 0.01 0.01 0.01 0.01 0.00 0.00 0.00 0.00 0.00 0.00 0.00 0.00 0.00 0.00 0.00 0.01 0.01 0.01 0.01 0.00 0.00 0.00 0.00 0.00 0.00 0.00 0.00 0.00 0.00 0.00 0.00 0.00 0.02 0.22 0.07 0.01
0.00 0.00 0.00 0.00 0.00 0.00 0.00 0.01 0.01 0.00 0.01 0.00 0.00 0.00 0.00 0.00 0.00 0.00 0.00 0.00 0.00 0.00 0.01 0.00 0.00 0.00 0.00 0.00 0.00 0.00 0.00 0.00 0.00 0.00 0.00 0.00 0.01 0.01 0.10 0.07 0.01 0.00
0.00 0.00 0.00 0.00 0.01 0.00 0.00 0.00 0.01 0.00 0.00 0.00 0.00 0.00 0.00 0.00 0.00 0.00 0.00 0.00 0.00 0.00 0.00 0.00 0.00 0.01 0.00 0.00 0.00 0.00 0.00 0.00 0.00 0.00 0.00 0.01 0.05 0.08 0.08 0.06 0.00 0.00
0.00 0.00 0.00 0.00 0.00 0.00 0.00 0.00 0.00 0.00 0.01 0.00 0.00 0.00 0.00 0.00 0.00 0.00 0.00 0.00 0.00 0.00 0.01 0.00 0.01 0.04 0.01 0.00 0.00 0.00 0.00 0.00 0.00 0.00 0.00 0.03 0.06 0.04 0.07 0.01 0.01 0.04
MSLP
1010.57 1010.85 1011.29 1011.69 1011.97 1012.13 1012.37 1012.69 1012.85 1013.17 1013.41 1013.45 1013.81 1013.93 1014.05 1014.09 1014.17 1014.41 1014.61 1014.93 1015.33 1015.61 1015.89 1016.09 1016.21 1016.37 1016.45 1016.61 1016.81 1017.05 1017.17 1017.25 1017.21 1017.17 1017.33 1017.45 1017.53 1017.57 1017.81 1017.85 1017.85 1017.93
1010.25 1010.45 1010.81 1011.17 1011.57 1011.73 1011.89 1012.05 1012.41 1012.73 1013.05 1013.17 1013.25 1013.41 1013.57 1013.73 1014.01 1014.21 1014.53 1014.85 1015.09 1015.45 1015.57 1015.81 1015.93 1016.01 1016.17 1016.29 1016.53 1016.81 1017.05 1017.21 1017.37 1017.01 1017.37 1017.37 1017.41 1017.41 1017.61 1017.69 1017.77 1017.65
1009.81 1010.17 1010.53 1010.97 1011.25 1011.49 1011.61 1011.73 1011.97 1012.29 1012.61 1012.77 1012.85 1013.01 1013.37 1013.41 1013.81 1013.97 1014.25 1014.53 1014.89 1015.09 1015.33 1015.49 1015.61 1015.65 1015.73 1015.77 1015.97 1016.33 1016.73 1016.97 1017.25 1017.05 1017.29 1017.45 1017.25 1017.29 1017.25 1017.25 1017.33 1017.45
1009.45 1009.69 1010.01 1010.33 1010.61 1010.97 1011.17 1011.49 1011.73 1011.97 1012.13 1012.49 1012.73 1012.81 1013.05 1013.21 1013.53 1013.89 1014.13 1014.37 1014.69 1014.89 1015.01 1015.21 1015.41 1015.61 1015.73 1015.73 1015.73 1016.01 1016.33 1016.69 1016.85 1017.01 1017.29 1017.37 1017.41 1017.29 1017.21 1017.17 1017.29 1017.33
1009.01 1009.29 1009.53 1009.81 1010.05 1010.33 1010.65 1011.13 1011.41 1011.65 1011.85 1011.97 1012.25 1012.49 1012.81 1013.13 1013.49 1013.69 1013.97 1014.29 1014.49 1014.65 1014.77 1014.97 1015.17 1015.45 1015.69 1015.85 1015.93 1016.17 1016.25 1016.41 1016.53 1016.81 1017.25 1017.53 1017.45 1017.41 1017.21 1017.09 1017.21 1017.37
1008.49 1008.77 1009.09 1009.41 1009.69 1010.05 1010.41 1010.77 1010.93 1011.09 1011.33 1011.57 1011.93 1012.09 1012.49 1012.77 1013.17 1013.37 1013.73 1014.05 1014.17 1014.33 1014.61 1014.73 1014.73 1014.93 1015.33 1015.77 1016.01 1016.17 1016.21 1016.33 1016.33 1016.49 1016.97 1017.37 1017.33 1017.09 1016.97 1016.93 1017.09 1017.33
1008.25 1008.49 1008.81 1008.97 1009.29 1009.53 1010.01 1010.29 1010.49 1010.61 1010.81 1010.93 1011.33 1011.81 1011.93 1012.37 1012.69 1012.93 1013.25 1013.57 1013.77 1014.01 1014.37 1014.69 1014.85 1014.93 1015.05 1015.45 1015.81 1016.09 1016.09 1016.17 1016.13 1016.25 1016.69 1016.93 1017.09 1017.13 1016.93 1016.93 1017.01 1017.25
1007.69 1007.89 1008.25 1008.53 1008.97 1009.21 1009.65 1009.93 1010.13 1010.29 1010.33 1010.57 1011.13 1011.29 1011.41 1011.77 1012.09 1012.29 1012.61 1013.01 1013.41 1013.69 1013.93 1014.25 1014.61 1014.81 1014.93 1015.25 1015.65 1015.93 1016.05 1016.05 1016.13 1016.13 1016.41 1016.69 1016.81 1017.13 1017.05 1016.93 1016.97 1017.13
1007.17 1007.57 1007.81 1008.21 1008.61 1008.85 1009.21 1009.45 1009.61 1009.73 1009.77 1010.25 1010.53 1010.77 1010.89 1011.21 1011.61 1011.89 1012.25 1012.61 1013.01 1013.33 1013.65 1014.01 1014.37 1014.65 1014.77 1015.01 1015.37 1015.65 1015.89 1016.01 1016.01 1016.09 1016.33 1016.61 1016.85 1016.93 1016.93 1016.93 1017.05 1017.05
1006.89 1007.05 1007.45 1007.77 1008.21 1008.37 1008.73 1008.85 1008.93 1009.21 1009.33 1009.73 1010.01 1010.29 1010.65 1010.81 1011.05 1011.45 1011.93 1012.29 1012.65 1012.97 1013.41 1013.73 1014.09 1014.37 1014.61 1014.77 1015.09 1015.37 1015.65 1015.85 1015.89 1015.97 1016.13 1016.33 1016.45 1016.49 1016.57 1016.73 1016.85 1016.93
1006.45 1006.69 1007.09 1007.41 1007.65 1007.81 1008.13 1008.29 1008.41 1008.57 1008.85 1009.29 1009.65 1009.97 1010.17 1010.45 1010.77 1010.93 1011.45 1011.89 1012.29 1012.65 1013.13 1013.49 1013.69 1013.97 1014.33 1014.57 1014.77 1015.05 1015.29 1015.53 1015.61 1015.69 1015.85 1016.01 1016.09 1016.17 1016.25 1016.37 1016.53 1016.65
1006.05 1006.33 1006.65 1006.93 1007.17 1007.37 1007.57 1007.73 1007.85 1008.05 1008.29 1008.77 1009.05 1009.41 1009.61 1009.89 1010.17 1010.49 1010.89 1011.45 1011.81 1012.21 1012.65 1013.05 1013.25 1013.53 1013.93 1014.29 1014.53 1014.81 1015.09 1015.25 1015.37 1015.41 1015.41 1015.49 1015.65 1015.85 1015.97 1016.01 1016.13 1016.09
1005.69 1005.93 1006.09 1006.41 1006.77 1006.93 1007.05 1007.25 1007.37 1007.37 1007.69 1008.37 1008.45 1008.65 1009.09 1009.45 1009.65 1010.01 1010.29 1010.77 1011.17 1011.57 1012.09 1012.57 1012.97 1013.25 1013.69 1014.05 1014.33 1014.53 1014.81 1015.01 1015.13 1015.13 1015.05 1015.05 1015.21 1015.41 1015.45 1015.49 1015.53 1015.61
1005.17 1005.37 1005.69 1005.97 1006.21 1006.53 1006.69 1006.81 1006.89 1007.05 1007.29 1007.73 1007.93 1008.21 1008.45 1008.77 1009.05 1009.37 1009.65 1010.05 1010.53 1011.01 1011.49 1012.01 1012.61 1013.09 1013.37 1013.73 1014.01 1014.21 1014.45 1014.65 1014.81 1014.85 1014.77 1014.77 1014.89 1015.05 1015.09 1015.13 1015.05 1015.09
1004.81 1005.17 1005.45 1005.77 1006.01 1006.33 1006.61 1006.69 1006.69 1006.85 1007.09 1007.33 1007.53 1007.65 1007.73 1007.97 1008.29 1008.81 1009.33 1009.81 1010.21 1010.69 1011.21 1011.65 1012.21 1012.57 1012.81 1013.13 1013.57 1013.89 1014.01 1014.21 1014.45 1014.57 1014.57 1014.57 1014.61 1014.69 1014.77 1014.81 1014.81 1014.73
1004.49 1004.89 1005.17 1005.41 1005.81 1006.13 1006.37 1006.57 1006.73 1006.77 1006.93 1007.17 1007.33 1007.37 1007.53 1007.73 1008.05 1008.49 1008.97 1009.53 1010.09 1010.53 1010.97 1011.37 1011.73 1011.97 1012.25 1012.61 1012.97 1013.33 1013.61 1013.81 1014.09 1014.25 1014.21 1014.21 1014.37 1014.57 1014.65 1014.53 1014.37 1014.37
1004.25 1004.69 1004.97 1005.37 1005.61 1005.85 1006.05 1006.29 1006.53 1006.65 1006.89 1007.05 1007.37 1007.61 1007.73 1007.93 1008.17 1008.65 1009.05 1009.33 1009.81 1010.33 1010.81 1011.09 1011.29 1011.45 1011.89 1012.37 1012.77 1013.05 1013.25 1013.53 1013.89 1014.01 1014.01 1014.01 1014.09 1014.25 1014.41 1014.33 1014.09 1013.89
1004.01 1004.41 1004.89 1005.13 1005.41 1005.77 1005.89 1006.17 1006.49 1006.65 1006.81 1007.05 1007.53 1007.85 1007.93 1008.01 1008.41 1008.73 1009.01 1009.25 1009.73 1010.13 1010.53 1010.69 1010.97 1011.21 1011.77 1012.21 1012.61 1012.89 1013.05 1013.21 1013.37 1013.69 1013.81 1014.01 1013.81 1013.77 1013.85 1013.97 1013.89 1013.69
1003.73 1004.21 1004.65 1005.05 1005.29 1005.45 1005.77 1006.13 1006.49 1006.85 1007.21 1007.37 1007.61 1007.69 1007.89 1008.21 1008.41 1008.61 1008.97 1009.17 1009.65 1009.97 1010.25 1010.41 1010.65 1011.13 1011.77 1012.25 1012.61 1012.77 1013.01 1013.17 1013.33 1013.53 1013.93 1014.13 1013.77 1013.37 1013.45 1013.45 1013.41 1013.49
1003.49 1003.89 1004.45 1004.77 1005.01 1005.29 1005.65 1006.09 1006.41 1006.93 1007.09 1007.17 1007.41 1007.53 1007.97 1008.25 1008.41 1008.85 1009.01 1009.29 1009.57 1009.81 1010.13 1010.17 1010.45 1011.05 1011.53 1012.01 1012.41 1012.69 1012.89 1013.17 1013.29 1013.53 1013.61 1013.41 1013.13 1012.97 1013.01 1012.93 1013.09 1013.33
1003.29 1003.65 1004.21 1004.61 1004.85 1005.17 1005.61 1006.01 1006.29 1006.61 1006.89 1007.21 1007.41 1007.57 1007.93 1008.21 1008.41 1008.81 1008.89 1009.09 1009.37 1009.65 1009.93 1010.09 1010.29 1010.81 1011.37 1011.85 1012.13 1012.37 1012.65 1013.01 1013.17 1013.29 1013.09 1012.85 1012.73 1012.61 1012.65 1012.73 1013.49 1013.45
1002.97 1003.49 1003.81 1004.33 1004.81 1005.21 1005.61 1005.93 1006.09 1006.33 1006.69 1006.93 1007.21 1007.33 1007.57 1007.97 1008.41 1008.45 1008.97 1009.33 1009.49 1009.61 1009.89 1010.17 1010.25 1010.73 1011.17 1011.57 1011.73 1012.01 1012.33 1012.77 1012.81 1012.93 1012.69 1012.45 1012.41 1012.33 1012.37 1012.81 1013.09 1012.73
1002.69 1003.25 1003.73 1004.13 1004.61 1005.13 1005.61 1005.93 1006.21 1006.41 1006.65 1006.73 1007.25 1007.49 1007.69 1008.21 1008.49 1008.53 1008.81 1009.17 1009.57 1009.85 1010.09 1010.33 1010.61 1010.85 1010.93 1011.21 1011.49 1011.69 1012.21 1012.37 1012.37 1012.37 1012.21 1012.09 1012.09 1011.97 1012.17 1012.89 1013.29 1012.61
1002.49 1002.97 1003.53 1003.93 1004.41 1005.01 1005.37 1005.61 1005.89 1006.09 1006.45 1006.69 1007.25 1007.61 1007.73 1007.93 1008.33 1008.61 1008.77 1008.93 1009.37 1009.73 1009.77 1010.13 1010.21 1010.37 1010.61 1010.93 1011.09 1011.41 1011.73 1011.81 1011.89 1011.93 1011.85 1011.77 1011.65 1011.69 1012.17 1013.01 1012.73 1012.65
1002.25 1002.73 1003.21 1003.69 1004.33 1004.69 1004.97 1005.49 1005.85 1006.21 1006.41 1006.69 1007.01 1007.33 1007.57 1007.73 1007.97 1008.41 1008.65 1008.81 1008.93 1009.13 1009.41 1009.73 1009.81 1009.97 1010.29 1010.49 1010.73 1011.05 1011.45 1011.33 1011.33 1011.37 1011.53 1011.45 1011.53 1012.05 1012.45 1012.89 1012.57 1012.65
1002.05 1002.61 1002.97 1003.45 1004.05 1004.45 1004.81 1005.21 1005.61 1006.09 1006.57 1006.93 1007.17 1007.41 1007.73 1007.89 1008.13 1008.33 1008.81 1008.93 1008.81 1009.01 1009.13 1009.37 1009.49 1009.45 1009.77 1010.17 1010.41 1010.77 1011.01 1011.01 1010.97 1011.25 1011.33 1011.21 1011.53 1012.13 1012.53 1012.13 1012.05 1012.45
Thickness
5818 5816 5812 5809 5807 5804 5803 5801 5798 5795 5792 5791 5789 5787 5786 5784 5782 5779 5776 5771 5768 5764 5761 5758 5755 5752 5750 5748 5744 5741 5739 5737 5736 5735 5734 5731 5729 5729 5726 5726 5725 5724
5819 5817 5814 5811 5808 5805 5805 5803 5800 5796 5793 5792 5791 5789 5787 5785 5781 5778 5775 5771 5767 5764 5761 5758 5755 5753 5750 5747 5744 5741 5737 5734 5732 5732 5730 5728 5727 5726 5724 5723 5723 5722
5820 5818 5815 5811 5809 5807 5806 5805 5802 5799 5796 5794 5793 5790 5788 5786 5782 5779 5775 5772 5767 5764 5762 5759 5756 5754 5751 5749 5746 5741 5736 5732 5730 5728 5725 5723 5722 5722 5722 5722 5721 5720
5821 5819 5817 5814 5812 5810 5808 5806 5802 5800 5797 5795 5793 5791 5789 5786 5783 5778 5774 5771 5768 5765 5762 5759 5755 5752 5748 5747 5745 5741 5737 5732 5729 5727 5722 5719 5718 5718 5718 5719 5718 5718
5823 5821 5819 5816 5814 5813 5810 5807 5803 5801 5799 5796 5795 5792 5789 5785 5781 5778 5773 5770 5768 5764 5762 5759 5755 5751 5746 5743 5740 5737 5734 5731 5729 5725 5720 5715 5714 5715 5716 5717 5715 5713
5825 5823 5821 5818 5816 5814 5811 5808 5805 5804 5802 5799 5796 5793 5790 5786 5781 5777 5773 5769 5767 5764 5761 5758 5755 5751 5746 5741 5737 5733 5731 5729 5727 5724 5719 5715 5713 5713 5715 5715 5713 5711
5826 5824 5822 5820 5818 5815 5812 5809 5807 5806 5804 5802 5798 5794 5791 5787 5782 5780 5775 5770 5768 5764 5760 5757 5753 5750 5746 5741 5736 5732 5729 5727 5726 5724 5719 5715 5712 5711 5712 5712 5711 5709
5828 5826 5825 5822 5819 5816 5813 5809 5808 5807 5806 5803 5798 5795 5793 5790 5785 5782 5778 5772 5768 5764 5760 5756 5752 5748 5745 5741 5736 5731 5728 5725 5724 5722 5718 5714 5712 5709 5709 5710 5709 5707
5830 5828 5826 5823 5820 5817 5814 5812 5810 5810 5809 5805 5800 5798 5796 5792 5788 5783 5778 5773 5768 5764 5761 5756 5751 5747 5743 5740 5735 5731 5727 5723 5722 5720 5717 5713 5711 5709 5709 5708 5706 5704
5832 5830 5827 5824 5822 5819 5816 5814 5814 5814 5811 5807 5803 5800 5797 5793 5789 5785 5779 5773 5769 5764 5759 5755 5750 5745 5740 5737 5735 5731 5727 5722 5719 5718 5715 5712 5710 5709 5708 5707 5704 5702
5833 5831 5828 5825 5823 5821 5819 5817 5817 5817 5814 5809 5803 5800 5797 5794 5790 5786 5781 5775 5769 5764 5759 5754 5751 5746 5740 5736 5735 5731 5726 5721 5718 5716 5714 5711 5710 5709 5707 5705 5704 5702
5835 5833 5830 5827 5825 5823 5821 5819 5819 5820 5817 5810 5805 5802 5798 5795 5791 5788 5782 5776 5770 5765 5760 5755 5751 5747 5742 5737 5734 5730 5725 5720 5717 5715 5714 5713 5710 5708 5707 5705 5703 5702
5836 5834 5832 5829 5827 5825 5824 5822 5822 5822 5818 5811 5807 5804 5800 5795 5792 5789 5784 5778 5772 5767 5760 5755 5750 5746 5741 5735 5732 5728 5723 5719 5716 5714 5714 5713 5711 5709 5707 5705 5704 5702
5838 5835 5833 5831 5829 5826 5824 5823 5822 5821 5817 5812 5809 5806 5801 5797 5794 5789 5784 5779 5773 5767 5761 5755 5749 5744 5740 5736 5731 5727 5723 5719 5716 5713 5713 5713 5710 5709 5707 5705 5703 5702
5838 5835 5833 5830 5828 5825 5822 5821 5821 5819 5816 5812 5809 5806 5802 5799 5795 5790 5784 5777 5771 5765 5760 5754 5749 5744 5741 5736 5731 5726 5722 5719 5716 5713 5713 5712 5710 5708 5706 5704 5703 5701
5839 5835 5832 5830 5826 5824 5821 5819 5818 5816 5813 5809 5807 5804 5800 5797 5792 5787 5781 5774 5769 5764 5758 5753 5749 5746 5742 5737 5732 5727 5722 5720 5715 5712 5712 5711 5709 5706 5704 5703 5703 5701
5838 5834 5831 5827 5825 5822 5820 5818 5816 5814 5811 5807 5803 5799 5796 5792 5787 5782 5777 5771 5766 5761 5756 5752 5749 5746 5741 5735 5730 5725 5722 5719 5714 5711 5710 5709 5707 5706 5703 5702 5702 5701
5836 5833 5829 5826 5823 5820 5818 5816 5812 5809 5807 5802 5798 5794 5790 5787 5782 5777 5772 5768 5763 5758 5754 5751 5748 5744 5739 5732 5727 5723 5720 5716 5713 5709 5707 5704 5704 5705 5703 5700 5700 5700
5835 5832 5827 5823 5822 5819 5816 5813 5808 5804 5800 5797 5793 5790 5786 5781 5777 5772 5768 5763 5759 5756 5752 5749 5746 5741 5735 5728 5723 5719 5716 5712 5710 5707 5704 5702 5703 5704 5702 5701 5700 5698
5834 5831 5826 5822 5820 5817 5813 5809 5804 5800 5797 5793 5790 5786 5781 5776 5772 5767 5762 5759 5756 5752 5748 5746 5743 5738 5732 5725 5719 5716 5712 5708 5706 5704 5703 5703 5704 5703 5702 5701 5698 5695
5833 5829 5824 5820 5817 5813 5810 5806 5802 5798 5794 5789 5786 5782 5778 5773 5768 5764 5759 5755 5752 5749 5745 5742 5739 5734 5728 5722 5718 5714 5709 5706 5703 5702 5702 5704 5703 5702 5702 5699 5693 5692
5832 5828 5823 5819 5814 5809 5805 5801 5798 5795 5791 5787 5783 5779 5775 5770 5765 5761 5757 5751 5748 5745 5741 5738 5734 5731 5726 5720 5716 5712 5707 5704 5702 5701 5702 5703 5702 5702 5701 5695 5690 5691
5831 5826 5821 5816 5811 5806 5801 5797 5794 5790 5787 5784 5778 5773 5770 5765 5760 5757 5753 5748 5744 5740 5737 5734 5730 5726 5724 5719 5715 5710 5706 5704 5702 5702 5702 5702 5701 5701 5699 5691 5687 5688
5829 5824 5819 5814 5809 5803 5798 5794 5791 5787 5783 5780 5773 5768 5766 5762 5758 5754 5749 5745 5741 5737 5734 5732 5728 5725 5722 5718 5714 5709 5706 5705 5704 5702 5702 5701 5700 5699 5693 5686 5683 5685
5826 5822 5817 5812 5806 5801 5797 5792 5787 5783 5779 5775 5769 5765 5761 5758 5755 5750 5745 5742 5739 5736 5733 5729 5726 5724 5720 5716 5713 5709 5705 5706 5705 5703 5701 5699 5697 5692 5686 5683 5682 5681
5823 5819 5814 5810 5804 5799 5794 5789 5784 5779 5774 5768 5764 5760 5757 5753 5750 5745 5740 5737 5735 5733 5730 5727 5724 5723 5719 5715 5712 5707 5704 5705 5703 5701 5698 5697 5693 5686 5681 5682 5681 5677